sat.trackr.live / text

‹ back to catalog

STARLINK-30476

NORAD 57930 · 2023-147T

PAYLOAD ACTIVE UNKNOWN

§ Identity

Operator
Country
US
Launch date
2023-09-24
Launch site
AFETR
Launch vehicle
Mass (kg)
RCS (m²)

Purposes: comms

External: N2YO · Heavens-Above · Gunter

§ Orbital elements

Epoch: 2026-05-25T04:00:03.998880Z

Period
91.53 min
Inclination
42.9925°
Eccentricity
0.0016912
Mean motion
15.73325329 rev/d
Perigee alt
338.0 km
Apogee alt
360.8 km
Semi-major
6,727.5 km
B*
3.2864e-5
RAAN
186.5222°
Arg perigee
219.8435°
Mean anomaly
309.8193°
Rev number
590

§ Raw data

STARLINK-304761 57930U 23147T   26145.16671295  .00004246  00000+0  32864-4 0  99982 57930  42.9925 186.5222 0016912 219.8435 309.8193 15.73325329  5901

JSON: /api/v1/satellites/57930 · /tle

For live sub-satellite position, see the globe view (requires WebGL).

§ Visibility from observer

Set your observer location to see the next 7 days of passes ≥ 10°. The values pass through the URL so the page stays shareable.

No JS? Fill the form by hand. The geolocation button needs JavaScript.